• In Belarus
  • List of Countries
  • For 7 days
  • Water Temperature
  • Satellite Maps
  • Weather Map
  • Weather Widgets
  • user-avatar
    Login

    Hourly Weather Baku

    Today, 20 March, Wednesday

    Time Temperature Precipitation Wind Pressure Humidity
    00:00 +3°C° 0.6 mm 10 mps 767 mmHg 81%
    01:00 +3°C° 0.7 mm 10 mps 767 mmHg 81%
    02:00 +3°C° 0.7 mm 10 mps 767 mmHg 81%
    03:00 +4°C° 0 mm 8 mps 766 mmHg 81%
    04:00 +4°C° 0.8 mm 8 mps 766 mmHg 81%
    05:00 +3°C° 0.8 mm 9 mps 766 mmHg 81%
    06:00 +3°C° 0.8 mm 9 mps 766 mmHg 81%
    07:00 +3°C° 0.4 mm 9 mps 766 mmHg 80%
    08:00 +3°C° 0.4 mm 9 mps 766 mmHg 80%
    09:00 +5°C° 0 mm 9 mps 766 mmHg 79%
    10:00 +5°C° 0.1 mm 9 mps 766 mmHg 77%
    11:00 +5°C° 0.1 mm 9 mps 766 mmHg 76%
    12:00 +5°C° 0.1 mm 9 mps 766 mmHg 74%
    13:00 +6°C° 0 mm 8 mps 766 mmHg 73%
    14:00 +6°C° 0 mm 8 mps 766 mmHg 72%
    15:00 +6°C° 0 mm 8 mps 766 mmHg 71%
    16:00 +6°C° 0 mm 8 mps 766 mmHg 74%
    17:00 +5°C° 0 mm 7 mps 766 mmHg 76%
    18:00 +5°C° 0 mm 7 mps 766 mmHg 79%
    19:00 +5°C° 0 mm 6 mps 766 mmHg 80%
    20:00 +5°C° 0 mm 6 mps 766 mmHg 81%
    21:00 +6°C° 0 mm 5 mps 766 mmHg 82%
    22:00 +6°C° 0 mm 5 mps 766 mmHg 82%
    23:00 +6°C° 0 mm 4 mps 766 mmHg 82%

    Tomorrow, 21 March, Thursday

    Time Temperature Precipitation Wind Pressure Humidity
    00:00 +6°C° 0 mm 4 mps 766 mmHg 82%
    01:00 +7°C° 0 mm 3 mps 766 mmHg 81%
    02:00 +7°C° 0 mm 3 mps 766 mmHg 81%
    03:00 +7°C° 0 mm 2 mps 766 mmHg 81%
    04:00 +7°C° 0 mm 2 mps 766 mmHg 82%
    05:00 +7°C° 0 mm 2 mps 766 mmHg 82%
    06:00 +8°C° 0 mm 1 mps 766 mmHg 83%
    07:00 +9°C° 0 mm 1 mps 766 mmHg 80%
    08:00 +9°C° 0 mm 1 mps 766 mmHg 78%
    09:00 +10°C° 0 mm 1 mps 766 mmHg 75%
    10:00 +10°C° 0 mm 1 mps 766 mmHg 73%
    11:00 +11°C° 0 mm 1 mps 766 mmHg 70%
    12:00 +11°C° 0 mm 1 mps 766 mmHg 67%
    13:00 +12°C° 0 mm 2 mps 766 mmHg 67%
    14:00 +12°C° 0 mm 2 mps 766 mmHg 67%
    15:00 +12°C° 0 mm 2 mps 765 mmHg 66%
    16:00 +12°C° 0 mm 2 mps 765 mmHg 69%
    17:00 +10°C° 0 mm 2 mps 765 mmHg 71%
    18:00 +10°C° 0 mm 2 mps 765 mmHg 73%
    19:00 +10°C° 0 mm 2 mps 766 mmHg 75%
    20:00 +10°C° 0 mm 2 mps 766 mmHg 76%
    21:00 +10°C° 0 mm 2 mps 766 mmHg 78%
    22:00 +10°C° 0 mm 2 mps 766 mmHg 78%
    23:00 +10°C° 0 mm 2 mps 766 mmHg 79%

    Day after tomorrow, 22 March, Friday

    Time Temperature Precipitation Wind Pressure Humidity
    00:00 +10°C° 0 mm 3 mps 765 mmHg 79%
    01:00 +10°C° 0 mm 3 mps 765 mmHg 81%
    02:00 +9°C° 0 mm 3 mps 765 mmHg 82%
    03:00 +9°C° 0 mm 3 mps 765 mmHg 83%
    04:00 +9°C° 0 mm 3 mps 765 mmHg 84%
    05:00 +9°C° 0 mm 3 mps 765 mmHg 85%
    06:00 +9°C° 0 mm 3 mps 765 mmHg 86%
    07:00 +10°C° 0 mm 3 mps 765 mmHg 81%
    08:00 +11°C° 0 mm 3 mps 765 mmHg 76%
    09:00 +11°C° 0 mm 4 mps 766 mmHg 71%
    10:00 +12°C° 0 mm 4 mps 765 mmHg 68%
    11:00 +13°C° 0 mm 4 mps 765 mmHg 65%
    12:00 +14°C° 0 mm 4 mps 765 mmHg 61%
    13:00 +14°C° 0 mm 4 mps 764 mmHg 62%
    14:00 +14°C° 0 mm 4 mps 764 mmHg 62%
    15:00 +14°C° 0 mm 4 mps 764 mmHg 63%
    16:00 +13°C° 0 mm 4 mps 764 mmHg 66%
    17:00 +13°C° 0 mm 4 mps 764 mmHg 70%
    18:00 +12°C° 0 mm 3 mps 764 mmHg 74%
    19:00 +11°C° 0.7 mm 3 mps 764 mmHg 76%
    20:00 +11°C° 0.7 mm 3 mps 765 mmHg 78%
    21:00 +10°C° 0.7 mm 3 mps 765 mmHg 80%
    22:00 +8°C° 1.4 mm 5 mps 765 mmHg 82%
    23:00 +8°C° 1.4 mm 7 mps 765 mmHg 84%

    23 March, Saturday

    Time Temperature Precipitation Wind Pressure Humidity
    00:00 +6°C° 1.4 mm 9 mps 765 mmHg 85%
    01:00 +6°C° 0.7 mm 10 mps 765 mmHg 83%
    02:00 +6°C° 0.7 mm 10 mps 765 mmHg 81%
    03:00 +6°C° 0.7 mm 11 mps 765 mmHg 79%
    04:00 +6°C° 0.6 mm 10 mps 766 mmHg 78%
    05:00 +5°C° 0.6 mm 9 mps 766 mmHg 77%
    06:00 +5°C° 0.6 mm 8 mps 766 mmHg 75%
    07:00 +6°C° 0.2 mm 7 mps 766 mmHg 71%
    08:00 +7°C° 0.2 mm 5 mps 767 mmHg 67%
    09:00 +9°C° 0.2 mm 3 mps 767 mmHg 63%
    10:00 +9°C° 0 mm 3 mps 766 mmHg 61%
    11:00 +10°C° 0 mm 2 mps 766 mmHg 59%
    12:00 +12°C° 0 mm 1 mps 765 mmHg 56%
    13:00 +11°C° 0 mm 3 mps 764 mmHg 57%
    14:00 +11°C° 0 mm 4 mps 764 mmHg 57%
    15:00 +12°C° 0 mm 5 mps 763 mmHg 58%
    16:00 +10°C° 0 mm 6 mps 762 mmHg 62%
    17:00 +10°C° 0 mm 6 mps 762 mmHg 67%
    18:00 +9°C° 0 mm 7 mps 761 mmHg 72%
    19:00 +9°C° 0 mm 7 mps 761 mmHg 74%
    20:00 +9°C° 0 mm 8 mps 761 mmHg 76%
    21:00 +7°C° 0 mm 9 mps 761 mmHg 78%
    22:00 +9°C° 0 mm 8 mps 761 mmHg 76%
    23:00 +9°C° 0 mm 8 mps 761 mmHg 74%

    24 March, Sunday

    Time Temperature Precipitation Wind Pressure Humidity
    00:00 +9°C° 0 mm 8 mps 761 mmHg 72%
    01:00 +7°C° 0 mm 8 mps 761 mmHg 73%
    02:00 +7°C° 0 mm 9 mps 761 mmHg 74%
    03:00 +6°C° 0 mm 10 mps 761 mmHg 75%
    04:00 +6°C° 0 mm 10 mps 761 mmHg 73%
    05:00 +6°C° 0 mm 11 mps 762 mmHg 71%
    06:00 +6°C° 0 mm 11 mps 762 mmHg 69%
    07:00 +6°C° 0 mm 11 mps 763 mmHg 65%
    08:00 +7°C° 0 mm 11 mps 764 mmHg 61%
    09:00 +7°C° 0 mm 10 mps 764 mmHg 57%
    10:00 +7°C° 0 mm 10 mps 764 mmHg 55%
    11:00 +8°C° 0 mm 10 mps 764 mmHg 52%
    12:00 +8°C° 0 mm 10 mps 764 mmHg 50%
    13:00 +9°C° 0 mm 8 mps 764 mmHg 51%
    14:00 +9°C° 0 mm 7 mps 764 mmHg 51%
    15:00 +9°C° 0 mm 5 mps 764 mmHg 52%
    16:00 +8°C° 0 mm 4 mps 764 mmHg 53%
    17:00 +8°C° 0 mm 4 mps 764 mmHg 54%
    18:00 +9°C° 0 mm 3 mps 764 mmHg 55%
    19:00 +8°C° 0 mm 4 mps 764 mmHg 57%
    20:00 +8°C° 0 mm 5 mps 764 mmHg 59%
    21:00 +8°C° 0 mm 6 mps 764 mmHg 61%
    22:00 +8°C° 0 mm 7 mps 764 mmHg 63%
    23:00 +8°C° 0 mm 7 mps 763 mmHg 66%

    25 March, Monday

    Time Temperature Precipitation Wind Pressure Humidity
    00:00 +8°C° 0 mm 7 mps 763 mmHg 69%
    01:00 +7°C° 0 mm 8 mps 763 mmHg 70%
    02:00 +7°C° 0 mm 8 mps 762 mmHg 71%
    03:00 +7°C° 0 mm 9 mps 762 mmHg 72%
    04:00 +7°C° 0 mm 8 mps 762 mmHg 70%
    05:00 +6°C° 0 mm 7 mps 763 mmHg 68%
    06:00 +7°C° 0 mm 6 mps 763 mmHg 66%
    07:00 +8°C° 0 mm 6 mps 763 mmHg 63%
    08:00 +9°C° 0 mm 6 mps 764 mmHg 59%
    09:00 +10°C° 0 mm 6 mps 764 mmHg 56%
    10:00 +11°C° 0 mm 6 mps 764 mmHg 58%
    11:00 +11°C° 0 mm 6 mps 764 mmHg 60%
    12:00 +11°C° 0 mm 7 mps 764 mmHg 62%
    13:00 +11°C° 0 mm 6 mps 764 mmHg 62%
    14:00 +11°C° 0 mm 6 mps 764 mmHg 62%
    15:00 +11°C° 0 mm 6 mps 764 mmHg 62%
    16:00 +11°C° 0 mm 6 mps 765 mmHg 63%
    17:00 +10°C° 0 mm 6 mps 765 mmHg 64%
    18:00 +10°C° 0 mm 5 mps 765 mmHg 64%
    19:00 +9°C° 0 mm 5 mps 766 mmHg 65%
    20:00 +10°C° 0 mm 4 mps 766 mmHg 66%
    21:00 +10°C° 0 mm 4 mps 767 mmHg 66%
    22:00 +10°C° 0 mm 3 mps 767 mmHg 69%
    23:00 +10°C° 0 mm 3 mps 767 mmHg 71%
    Show more